TimeMDT,TemperatureF,Dew PointF,Humidity,Sea Level PressureIn,VisibilityMPH,Wind Direction,Wind SpeedMPH,Gust SpeedMPH,PrecipitationIn,Events,Conditions,WindDirDegrees,DateUTC
12:53 AM,53.1,37.9,57,29.82,10.0,SW,16.1,24.2,N/A,,Clear,220,2011-10-31 06:53:00
1:53 AM,54.0,37.9,55,29.81,10.0,SW,23.0,31.1,N/A,,Clear,230,2011-10-31 07:53:00
2:53 AM,52.0,37.9,59,29.80,10.0,SW,16.1,24.2,N/A,,Clear,220,2011-10-31 08:53:00
3:53 AM,51.1,37.0,59,29.78,10.0,SW,13.8,-,N/A,,Clear,220,2011-10-31 09:53:00
4:53 AM,53.6,37.4,54,29.77,10.0,SW,20.7,29.9,N/A,,Clear,220,2011-10-31 10:53:00
5:53 AM,51.1,37.0,59,29.76,10.0,SW,13.8,-,N/A,,Clear,220,2011-10-31 11:53:00
6:53 AM,50.0,37.0,61,29.77,10.0,SW,11.5,-,N/A,,Partly Cloudy,220,2011-10-31 12:53:00
7:53 AM,50.0,37.9,63,29.77,10.0,SW,15.0,-,N/A,,Clear,220,2011-10-31 13:53:00
8:53 AM,52.0,37.0,57,29.79,10.0,WSW,15.0,-,N/A,,Overcast,240,2011-10-31 14:53:00
9:53 AM,52.0,37.0,57,29.81,10.0,West,20.7,24.2,0.00,,Overcast,260,2011-10-31 15:53:00
10:53 AM,52.0,30.0,43,29.84,10.0,West,25.3,35.7,N/A,,Mostly Cloudy,270,2011-10-31 16:53:00
11:53 AM,54.0,24.1,31,29.86,10.0,West,29.9,40.3,N/A,,Clear,260,2011-10-31 17:53:00
12:53 PM,55.0,24.1,30,29.89,10.0,West,31.1,43.7,N/A,,Mostly Cloudy,270,2011-10-31 18:53:00
1:53 PM,53.1,19.0,26,29.90,10.0,West,31.1,38.0,N/A,,Clear,260,2011-10-31 19:53:00
2:53 PM,53.1,18.0,25,29.90,10.0,West,24.2,33.4,N/A,,Clear,270,2011-10-31 20:53:00
3:53 PM,50.0,18.0,28,29.93,10.0,West,31.1,39.1,N/A,,Clear,280,2011-10-31 21:53:00
4:53 PM,46.0,17.1,31,29.97,10.0,West,16.1,25.3,N/A,,Clear,260,2011-10-31 22:53:00
5:53 PM,44.1,19.0,37,30.00,10.0,West,21.9,28.8,N/A,,Clear,270,2011-10-31 23:53:00
6:53 PM,39.0,21.0,49,30.06,10.0,WSW,12.7,-,N/A,,Partly Cloudy,250,2011-11-01 00:53:00
7:53 PM,39.2,19.4,45,30.05,10.0,West,12.7,-,N/A,,Scattered Clouds,270,2011-11-01 01:53:00
8:53 PM,35.1,19.9,54,30.10,10.0,SW,10.4,-,N/A,,Mostly Cloudy,220,2011-11-01 02:53:00
9:53 PM,35.1,19.9,54,30.12,10.0,SW,11.5,-,N/A,,Mostly Cloudy,230,2011-11-01 03:53:00
10:53 PM,33.1,19.0,56,30.13,10.0,SW,12.7,-,N/A,,Clear,230,2011-11-01 04:53:00
11:53 PM,33.1,19.0,56,30.12,10.0,WSW,13.8,-,N/A,,Clear,240,2011-11-01 05:53:00